Location: Newark
(23.1300°N, 73.6109°E)
Time: 17:07:05
(UTC+00:00)

RS-15 - Visible Passes

Search period start: 03 July 2020 00:00
Search period end: 13 July 2020 00:00
Orbit: 1897 x 2148 km, 64.8° (Epoch: 02 July)

Date Brightness Start Highest point End Pass type
(mag) Time Alt. Az. Time Alt. Az. Time Alt. Az.
03 Jul 8.0 14:47:36 10° S 14:58:09 53° ESE 15:08:31 10° NE visible
03 Jul 9.3 17:01:10 10° WSW 17:10:33 32° NW 17:20:00 10° N visible
04 Jul 8.3 14:12:36 10° S 14:22:20 37° ESE 14:31:56 10° NE visible
04 Jul 8.8 16:24:00 10° SW 16:34:15 44° WNW 16:44:32 10° N visible
04 Jul 10.5 23:26:51 10° N 23:33:38 17° NE 23:40:32 10° E visible
05 Jul 8.4 15:47:19 10° SW 15:58:06 61° WNW 16:08:51 10° NNE visible
05 Jul 10.8 22:53:27 10° NNE 22:56:41 11° NE 22:59:56 10° ENE visible
06 Jul 8.0 15:11:01 10° SSW 15:22:03 81° WNW 15:33:00 10° NNE visible
06 Jul 10.1 17:30:12 10° W 17:35:57 15° NW 17:41:44 10° NNW visible
07 Jul 7.9 14:35:07 10° SSW 14:46:06 76° ESE 14:56:58 10° NNE visible
07 Jul 9.8 16:51:23 10° W 16:59:13 22° NW 17:07:09 10° N visible
07 Jul 9.9 23:48:50 10° N 23:59:00 35° ENE 00:09:28 10° ESE visible
08 Jul 9.5 16:13:30 10° WSW 16:22:43 31° NW 16:32:01 10° N visible
08 Jul 10.3 23:13:34 10° N 23:22:32 25° NE 23:31:42 10° ESE visible
09 Jul 9.0 15:36:15 10° SW 15:46:23 42° WNW 15:56:35 10° N visible
09 Jul 10.5 22:38:43 10° N 22:45:52 18° NE 22:53:08 10° E visible
10 Jul 8.6 14:59:29 10° SW 15:10:13 58° WNW 15:20:56 10° NNE visible
10 Jul 10.7 22:04:56 10° NNE 22:08:58 12° NE 22:13:01 10° ENE visible
11 Jul 8.2 14:23:09 10° SSW 14:34:09 78° WNW 14:45:07 10° NNE visible
11 Jul 10.4 16:42:51 10° WNW 16:48:10 14° NW 16:53:33 10° NNW visible
11 Jul 9.2 23:36:23 10° NNW 23:47:27 49° ENE 23:58:54 10° SE visible
12 Jul 10.1 16:03:50 10° W 16:11:25 21° NW 16:19:06 10° N visible
12 Jul 9.6 23:00:51 10° N 23:11:10 36° ENE 23:21:48 10° ESE visible
